Location: ?????
(37.7324°N, 23.9257°E)
Time: 21:15:51
(UTC+00:00)

SJ 16-02 - Pass Details

Date: 29 November 2020
Orbit: 606 x 616 km, 75.0° (Epoch: 19 January)

Event Time Altitude Azimuth Distance (km) Brightness Sun altitude
Exits shadow 03:09:04 17° 11° (N) 1,578 3.4 -25.2°
Drops below altitude 10° 03:10:06 10° 13° (NNE) 1,982 4.0 -25.0°
Sets 03:12:22 0° 15° (NNE) 2,892 4.9 -24.6°
